Reflectivity
-20 -20 -20 -20 -20 -20 -20 -20 -20 -20 -20 -20 -20 -20 -20 -20 -20 -20 -20 -20 -20 -20
-20 -20 -20 -20 -20 -20 -20 -20 -20 -20 -20 -20 -20 -20 -20 -20 -20 -20 -20 -20 -20 -20
-20 -20 -20 -20 -20 -20 -20 -20 -20 -20 -20 -20 -20 -20 -20 -20 -20 -20 -20 -20 -20 -20
-20 -20 -20 -20 -20 -20 -20 -20 -20 -20 -20 -20 -20 -20 -20 -20 -20 -20 -20 -20 -20 -20
-20 -20 -20 -20 -20 -20 -20 -20 -20 6 -17 -20 -20 -20 -20 -20 -20 -20 -20 -20 -20 -20
-20 -20 -20 -20 -20 -20 -20 -20 -20 -0 -17 -20 -20 -20 -20 -20 -20 -20 -20 -20 -20 -20
-20 -20 -20 -20 -20 -20 -20 -20 -20 -15 -16 -20 -20 -20 -20 -20 -20 -20 -20 -20 -20 -20
-8 -5 -20 -20 -20 -20 -20 -20 -20 -20 -20 -20 -20 -20 -20 -20 -20 -20 -20 -20 -15 -20
16 12 12 9 10 11 -20 -20 -20 -20 -20 -20 -20 2 -20 -19 -20 -20 -20 -20 -2 -20
12 11 13 12 17 6 16 -20 -20 -20 -20 -20 -20 10 -19 -9 -20 -15 -17 -16 -9 1
-20 5 8 18 16 8 17 -13 -8 14 -20 -20 5 15 1 12 -5 9 27 21 4 23
-20 12 10 14 10 0 15 21 -5 17 2 -20 8 34 -4 19 22 23 37 -4 2 25
-20 4 7 7 5 -4 8 22 3 19 18 24 20 25 16 23 31 16 10 28 15 27
9 -20 -10 8 15 19 19 23 6 -12 25 -3 28 24 20 1 17 -18 15 25 2 16
Wind_Speed
10 9 6 12 9 7 7 7 8 8 7 7 7 6 6 4 4 6 5 7 5 4
11 10 9 10 12 10 9 7 7 8 8 8 8 8 7 5 5 6 5 6 6 5
14 11 9 9 12 13 11 12 12 9 7 8 7 7 8 6 6 6 4 4 6 4
14 14 11 9 11 13 13 13 14 13 12 11 9 8 8 7 8 8 6 5 6 6
14 14 12 11 11 13 14 13 15 13 11 11 11 9 11 11 9 11 9 7 7 7
14 14 15 15 14 14 14 15 15 14 14 13 14 13 11 10 10 9 9 8 8 7
15 15 16 15 14 15 16 16 15 15 15 14 13 12 12 11 11 10 8 7 7 7
12 13 13 15 16 16 15 16 17 13 11 12 12 10 12 13 12 11 9 7 7 6
4 7 11 10 11 8 8 10 12 13 13 13 10 19 22 17 13 11 11 10 8 8
6 6 6 6 9 10 9 11 11 10 11 11 8 22 22 22 12 12 11 11 10 7
4 6 6 8 9 8 8 11 10 11 11 11 10 20 22 21 12 11 11 9 8 7
4 5 7 9 9 9 9 9 9 9 13 14 13 22 23 14 10 11 8 8 8 6
5 7 7 8 9 8 9 9 9 10 11 19 16 25 26 18 10 10 8 6 6 10
6 7 8 8 6 9 9 10 11 13 10 14 15 18 24 23 10 10 8 6 6 4
Wind_Direction
186 188 182 168 162 173 176 180 168 166 163 156 143 140 137 126 117 112 110 110 102 102
189 184 190 167 165 171 175 177 168 166 161 154 148 147 139 133 131 120 121 124 121 116
197 191 181 168 177 174 179 174 171 166 157 149 149 151 142 142 139 129 142 139 131 128
196 195 184 183 182 179 177 179 168 174 165 155 156 159 149 151 148 145 151 137 134 136
193 188 182 185 189 185 182 174 169 167 155 159 162 161 161 162 160 153 151 144 138 140
197 189 189 191 192 189 183 174 171 167 166 170 173 172 168 163 154 156 150 151 151 156
202 198 192 190 192 192 189 174 174 176 178 176 170 169 165 160 151 145 149 148 146 153
207 204 198 190 191 195 194 183 174 165 161 159 168 168 156 146 142 140 140 133 123 106
245 213 213 201 188 158 147 144 148 160 163 169 168 160 152 150 148 148 146 140 121 123
210 193 156 135 144 154 155 148 155 143 145 159 159 156 151 143 142 143 145 140 139 150
207 169 148 145 145 143 156 154 158 154 146 143 150 152 146 142 132 129 129 129 133 131
180 158 159 159 155 145 143 141 148 157 145 145 141 146 139 120 115 119 132 130 122 138
185 179 178 165 158 158 153 152 145 149 160 159 153 156 145 142 148 131 130 123 115 145
184 182 166 152 149 146 144 145 148 147 160 144 155 157 154 148 148 136 146 147 142 135